Printer-friendly version

IAU Minor Planet Center

Minor Planet Center

MPEC 2007-E35 : 2007 EJ

The following Minor Planet Electronic Circular may be linked-to from your own Web pages, but must not otherwise be redistributed electronically.


Read MPEC 2007-E34 Read MPEC 2007-E36


M.P.E.C. 2007-E35                                Issued 2007 Mar. 10, 03:04 UT

     The Minor Planet Electronic Circulars contain information on unusual
         minor planets and routine data on comets.  They are published
   on behalf of Commission 20 of the International Astronomical Union by the
          Minor Planet Center, Smithsonian Astrophysical Observatory,
                          Cambridge, MA 02138, U.S.A.

             Prepared using the Tamkin Foundation Computer Network

                              MPC@CFA.HARVARD.EDU
          URL http://cfa-www.harvard.edu/iau/mpc.html  ISSN 1523-6714

                                    2007 EJ

Observations:
     K07E00J* C2007 03 09.14007 04 00 18.68 +30 54 23.5          19.5 V EE035G96
     K07E00J  C2007 03 09.14455 04 00 20.34 +30 54 29.4          19.5 V EE035G96
     K07E00J  C2007 03 09.14899 04 00 21.96 +30 54 35.3          19.5 V EE035G96
     K07E00J  C2007 03 09.15345 04 00 23.58 +30 54 41.0          19.6 V EE035G96
     K07E00J  C2007 03 09.19616 04 00 39.27 +30 55 37.1          19.8 V EE035G96
     K07E00J  C2007 03 09.19700 04 00 39.56 +30 55 37.9          19.6 V EE035G96
     K07E00J  C2007 03 09.19789 04 00 39.88 +30 55 38.9          19.8 V EE035G96
     K07E00J  C2007 03 09.19874 04 00 40.21 +30 55 40.1          19.7 V EE035G96
     K07E00J  C2007 03 09.81596 04 04 28.39 +31 09 04.4                 EE035J95
     K07E00J  C2007 03 09.87979 04 04 51.85 +31 10 25.6                 EE035J95
     K07E00J  C2007 03 09.88613 04 04 54.20 +31 10 33.5          20.4 R EE035J95
     K07E00J  C2007 03 10.06500 04 06 00.26 +31 14 24.1          20.2 R EE035734
     K07E00J  C2007 03 10.06801 04 06 01.42 +31 14 27.3          19.7 R EE035734
     K07E00J  C2007 03 10.07103 04 06 02.50 +31 14 31.2          20.1 R EE035734
     K07E00J  C2007 03 10.07404 04 06 03.68 +31 14 34.9          20.3 R EE035734

Observer details:
734 Farpoint Observatory.  Observer G. Hug.  0.7-m reflector + CCD.
G96 Mt. Lemmon Survey.  Observer E. J. Christensen.  Measurers E. C. Beshore,
    E. J. Christensen, G. J. Garradd, A. R. Gibbs, A. D. Grauer, R. E. Hill,
    R. A. Kowalski, S. M. Larson, R. H. McNaught.  1.5-m reflector + CCD.
J95 Great Shefford.  Observer P. Birtwhistle.  0.40-m f/6.0 Schmidt-Cassegrain
    + CCD.

Orbital elements:
2007 EJ                                             PHA, Earth MOID = 0.0446 AU
Epoch 2007 Mar. 1.0 TT = JDT 2454160.5                  MPC
M   6.79732              (2000.0)            P               Q
n   0.18025787     Peri.    5.58404     +0.40627520     -0.90459659
a   3.1036534      Node    60.50355     +0.83250810     +0.30824237
e   0.6979321      Incl.    8.52436     +0.37665731     +0.29443444
P   5.47           H   17.9           G   0.15
From 15 observations 2007 Mar. 9-10.  E-assumed.

Ephemeris:
2007 EJ                  a,e,i = 3.10, 0.70, 9                   q = 0.9375
Date    TT    R. A. (2000) Decl.     Delta      r     Elong.  Phase     V
2007 03 01    03 10.70   +27 12.8    0.822    1.086    73.0    60.7    19.8
2007 03 11    04 11.76   +31 33.5    0.866    1.162    77.1    56.4    20.0
2007 03 21    05 12.18   +33 49.7    0.939    1.247    80.2    51.9    20.2
2007 03 31    06 07.96   +34 15.3    1.037    1.336    82.0    47.7    20.4
2007 04 10    06 56.87   +33 21.8    1.158    1.429    82.5    44.0    20.7
2007 04 20    07 38.76   +31 39.9    1.297    1.524    81.8    40.7    21.0
2007 04 30    08 14.57   +29 32.3    1.450    1.619    80.2    37.8    21.3
2007 05 10    08 45.47   +27 13.1    1.615    1.714    77.8    35.2    21.6
2007 05 20    09 12.57   +24 49.9    1.788    1.808    74.7    32.7    21.8

Timothy B. Spahr             (C) Copyright 2007 MPC           M.P.E.C. 2007-E35

Read MPEC 2007-E34 Read MPEC 2007-E36


Our Web policy. Index to the CBAT/MPC/ICQ pages.


Valid HTML 4.01!